CW3363 Weather Reports


Display with metric or nautical units.
time (UTC)temp
F
wind
direction
speed
MPH
gust
MPH
rain 1hr
in
rain 24hr
in
rain mn
in
humidity
%
barometer
mb
20260831032406 86 151 3.0 9.0 0.00 0.00 0.00 74 1015.0
20260831031859 86 149 4.0 9.0 0.00 0.00 0.00 74 1015.0
20260831031329 86 184 4.0 8.0 0.00 0.00 0.00 73 1014.9
20260831030826 86 139 5.0 8.0 0.00 0.00 0.00 73 1014.9
20260831030323 86 158 3.0 7.0 0.00 0.00 0.00 73 1014.9
20260831025853 86 136 4.0 10.0 0.00 0.00 0.00 72 1014.8
20260831025329 86 168 4.0 10.0 0.00 0.00 0.00 72 1014.8
20260831024842 87 153 4.0 7.0 0.00 0.00 0.00 71 1014.8
20260831024354 87 134 3.0 9.0 0.00 0.00 0.00 71 1014.4
20260831023827 87 171 3.0 9.0 0.00 0.00 0.00 70 1014.4
20260831023343 87 183 3.0 9.0 0.00 0.00 0.00 69 1014.4
20260831022835 87 151 5.0 10.0 0.00 0.00 0.00 69 1014.3
20260831022332 87 187 3.0 10.0 0.00 0.00 0.00 69 1014.3
20260831021827 88 158 3.0 6.0 0.00 0.00 0.00 69 1014.3
20260831021337 88 176 3.0 7.0 0.00 0.00 0.00 68 1014.2
20260831020831 88 189 3.0 7.0 0.00 0.00 0.00 68 1014.2
20260831020323 88 165 3.0 6.0 0.00 0.00 0.00 67 1014.2
20260831015834 88 171 4.0 6.0 0.00 0.00 0.00 67 1013.9
20260831015329 89 192 3.0 7.0 0.00 0.00 0.00 66 1013.9
20260831014839 89 153 3.0 7.0 0.00 0.00 0.00 66 1013.9
20260831014331 89 183 4.0 6.0 0.00 0.00 0.00 65 1014.0
20260831013823 89 157 4.0 7.0 0.00 0.00 0.00 64 1014.0
20260831013331 89 139 3.0 7.0 0.00 0.00 0.00 64 1014.0
20260831012825 90 177 2.0 9.0 0.00 0.00 0.00 63 1013.9
20260831012337 90 156 4.0 7.0 0.00 0.00 0.00 62 1013.9
20260831011827 90 160 3.0 8.0 0.00 0.00 0.00 61 1013.9
20260831011338 90 137 5.0 8.0 0.00 0.00 0.00 61 1013.8
20260831010833 91 151 4.0 7.0 0.00 0.00 0.00 60 1013.8
20260831010344 91 138 4.0 9.0 0.00 0.00 0.00 60 1013.8
20260831005836 91 142 5.0 9.0 0.00 0.00 0.00 60 1013.8
20260831005331 91 119 4.0 9.0 0.00 0.00 0.00 60 1013.8
20260831004824 91 150 3.0 11.0 0.00 0.00 0.00 59 1013.8
20260831004334 92 187 5.0 11.0 0.00 0.00 0.00 59 1013.7
20260831003848 92 191 5.0 11.0 0.00 0.00 0.00 59 1013.7
20260831003410 92 181 4.0 9.0 0.00 0.00 0.00 58 1013.7
20260831002902 92 158 5.0 10.0 0.00 0.00 0.00 57 1013.6
20260831002334 92 202 4.0 13.0 0.00 0.00 0.00 57 1013.6
20260831001825 92 154 4.0 13.0 0.00 0.00 0.00 58 1013.6
20260831001337 92 171 6.0 16.0 0.00 0.00 0.00 57 1013.4
20260831000829 94 155 11.0 16.0 0.00 0.00 0.00 55 1013.4
20260831000322 94 135 7.0 15.0 0.00 0.00 0.00 52 1013.4
20260830235835 95 118 7.0 13.0 0.00 0.00 0.00 52 1013.3
20260830235342 95 137 5.0 13.0 0.00 0.00 0.00 51 1013.3
20260830234856 95 127 6.0 14.0 0.00 0.00 0.00 51 1013.3
20260830234331 96 151 10.0 14.0 0.00 0.00 0.00 50 1013.3
20260830233825 96 160 5.0 9.0 0.00 0.00 0.00 49 1013.3
20260830233338 96 358 1.0 14.0 0.00 0.00 0.00 50 1013.3
20260830232830 96 134 9.0 14.0 0.00 0.00 0.00 49 1013.3
20260830232345 97 129 7.0 14.0 0.00 0.00 0.00 48 1013.3
20260830231836 97 89 5.0 12.0 0.00 0.00 0.00 46 1013.3
20260830231327 97 123 1.0 8.0 0.00 0.00 0.00 47 1013.3
20260830230840 98 138 6.0 10.0 0.00 0.00 0.00 45 1013.3
20260830230356 98 184 5.0 11.0 0.00 0.00 0.00 45 1013.3
20260830225845 98 125 6.0 11.0 0.00 0.00 0.00 43 1013.3
20260830225338 98 233 3.0 6.0 0.00 0.00 0.00 43 1013.3
20260830224834 98 186 2.0 6.0 0.00 0.00 0.00 44 1013.3
20260830224347 98 184 4.0 10.0 0.00 0.00 0.00 44 1013.4
20260830223822 98 196 5.0 13.0 0.00 0.00 0.00 44 1013.4
20260830223341 99 158 5.0 13.0 0.00 0.00 0.00 43 1013.4
20260830222834 99 157 4.0 7.0 0.00 0.00 0.00 42 1013.4
20260830222331 99 133 3.0 7.0 0.00 0.00 0.00 42 1013.4
20260830221847 99 103 1.0 10.0 0.00 0.00 0.00 44 1013.4
20260830221334 99 141 5.0 10.0 0.00 0.00 0.00 42 1013.4
20260830220827 99 198 5.0 12.0 0.00 0.00 0.00 43 1013.4
20260830220323 99 151 8.0 12.0 0.00 0.00 0.00 43 1013.4
20260830215859 99 145 4.0 12.0 0.00 0.00 0.00 43 1013.5
20260830215333 99 213 4.0 10.0 0.00 0.00 0.00 44 1013.5
20260830214825 99 160 6.0 10.0 0.00 0.00 0.00 43 1013.5
20260830214336 99 123 5.0 7.0 0.00 0.00 0.00 43 1013.8
20260830213832 98 210 2.0 6.0 0.00 0.00 0.00 45 1013.8
20260830213327 96 215 3.0 7.0 0.00 0.00 0.00 47 1013.8
20260830212841 96 160 3.0 10.0 0.00 0.00 0.00 46 1014.0
20260830212333 96 137 7.0 10.0 0.00 0.00 0.00 46 1014.0
20260830211846 96 217 1.0 6.0 0.00 0.00 0.00 48 1014.0
20260830211337 96 141 1.0 7.0 0.00 0.00 0.00 48 1014.3
20260830210849 96 140 4.0 7.0 0.00 0.00 0.00 48 1014.3
20260830210322 97 127 0.0 4.0 0.00 0.00 0.00 48 1014.3
20260830205833 97 101 0.0 5.0 0.00 0.00 0.00 48 1014.4
20260830205325 98 117 2.0 6.0 0.00 0.00 0.00 47 1014.4
20260830204837 98 118 2.0 6.0 0.00 0.00 0.00 46 1014.4
20260830204329 98 141 1.0 6.0 0.00 0.00 0.00 48 1014.5
20260830203845 98 74 2.0 6.0 0.00 0.00 0.00 48 1014.5
20260830203331 98 127 1.0 10.0 0.00 0.00 0.00 48 1014.5
20260830202826 99 113 6.0 10.0 0.00 0.00 0.00 46 1014.9
20260830202409 99 167 1.0 8.0 0.00 0.00 0.00 46 1014.9
20260830201900 100 127 3.0 11.0 0.00 0.00 0.00 46 1014.9
20260830201330 99 206 4.0 11.0 0.00 0.00 0.00 46 1015.0
20260830200822 99 166 1.0 7.0 0.00 0.00 0.00 47 1015.0
20260830200333 98 153 3.0 6.0 0.00 0.00 0.00 48 1015.0
20260830195844 97 193 1.0 7.0 0.00 0.00 0.00 50 1015.4
20260830195335 97 59 3.0 7.0 0.00 0.00 0.00 51 1015.4
20260830194829 97 117 5.0 7.0 0.00 0.00 0.00 50 1015.4
20260830194323 97 231 3.0 7.0 0.00 0.00 0.00 50 1015.8
20260830193837 98 46 1.0 9.0 0.00 0.00 0.00 48 1015.8
20260830193348 98 168 1.0 12.0 0.00 0.00 0.00 50 1015.8
20260830192839 97 127 4.0 12.0 0.00 0.00 0.00 49 1015.9
20260830192332 98 139 5.0 11.0 0.00 0.00 0.00 49 1015.9
20260830191824 97 118 3.0 12.0 0.00 0.00 0.00 50 1015.9
20260830191337 97 142 4.0 12.0 0.00 0.00 0.00 48 1016.1
20260830190826 96 193 4.0 5.0 0.00 0.00 0.00 51 1016.1
20260830190338 96 96 1.0 10.0 0.00 0.00 0.00 51 1016.1
20260830185828 96 104 4.0 10.0 0.00 0.00 0.00 51 1016.2
20260830185337 96 205 2.0 11.0 0.00 0.00 0.00 51 1016.2
20260830184829 96 136 6.0 11.0 0.00 0.00 0.00 51 1016.2
20260830184341 96 127 1.0 4.0 0.00 0.00 0.00 54 1016.4
20260830183854 95 225 1.0 4.0 0.00 0.00 0.00 55 1016.4
20260830183327 96 315 0.0 4.0 0.00 0.00 0.00 54 1016.4
20260830182839 95 238 0.0 9.0 0.00 0.00 0.00 56 1016.7
20260830182351 95 125 4.0 9.0 0.00 0.00 0.00 54 1016.7
20260830181820 95 122 1.0 4.0 0.00 0.00 0.00 55 1016.7
20260830181337 95 351 2.0 6.0 0.00 0.00 0.00 55 1017.0
20260830180849 95 144 2.0 6.0 0.00 0.00 0.00 54 1017.0
20260830180400 95 262 2.0 6.0 0.00 0.00 0.00 56 1017.0
20260830175828 94 249 2.0 5.0 0.00 0.00 0.00 56 1017.1
20260830175322 94 219 2.0 6.0 0.00 0.00 0.00 57 1017.1
20260830174837 94 179 2.0 6.0 0.00 0.00 0.00 58 1017.1
20260830174326 93 219 2.0 5.0 0.00 0.00 0.00 59 1017.5
20260830173839 93 168 0.0 3.0 0.00 0.00 0.00 62 1017.5
20260830173324 92 294 3.0 3.0 0.00 0.00 0.00 61 1017.5
20260830172832 92 351 2.0 2.0 0.00 0.00 0.00 61 1017.5
20260830172401 93 297 1.0 1.0 0.00 0.00 0.00 61 1017.5
20260830171826 93 141 1.0 4.0 0.00 0.00 0.00 59 1017.5
20260830171332 92 144 4.0 4.0 0.00 0.00 0.00 59 1017.5
20260830170838 92 118 2.0 3.0 0.00 0.00 0.00 59 1017.5
20260830170323 92 164 3.0 3.0 0.00 0.00 0.00 60 1017.5
20260830165834 91 179 2.0 4.0 0.00 0.00 0.00 62 1017.6
20260830165359 91 149 4.0 4.0 0.00 0.00 0.00 62 1017.6
20260830164841 91 156 3.0 4.0 0.00 0.00 0.00 63 1017.6
20260830164327 90 138 4.0 4.0 0.00 0.00 0.00 64 1017.9
20260830163834 90 34 0.0 5.0 0.00 0.00 0.00 67 1017.9
20260830163339 90 140 5.0 5.0 0.00 0.00 0.00 67 1017.9
20260830162825 89 133 2.0 3.0 0.00 0.00 0.00 68 1017.8
20260830162352 89 170 3.0 3.0 0.00 0.00 0.00 68 1017.8
20260830161837 90 196 3.0 3.0 0.00 0.00 0.00 67 1017.8
20260830161402 90 203 1.0 1.0 0.00 0.00 0.00 70 1017.9
20260830160827 89 236 1.0 1.0 0.00 0.00 0.00 70 1017.9
20260830160332 89 326 0.0 2.0 0.00 0.00 0.00 70 1017.9
20260830155836 89 146 2.0 2.0 0.00 0.00 0.00 71 1018.0
20260830155325 89 73 0.0 0.0 0.00 0.00 0.00 71 1018.0
20260830154830 88 208 0.0 3.0 0.00 0.00 0.00 72 1018.0
20260830154335 88 130 3.0 3.0 0.00 0.00 0.00 74 1018.0
20260830153900 88 255 2.0 2.0 0.00 0.00 0.00 75 1018.0
20260830153323 88 213 2.0 3.0 0.00 0.00 0.00 76 1018.0
20260830152826 87 191 3.0 3.0 0.00 0.00 0.00 74 1017.7
20260830152331 87 208 2.0 2.0 0.00 0.00 0.00 75 1017.7
20260830151855 86 125 0.0 2.0 0.00 0.00 0.00 79 1017.7
20260830151338 86 205 2.0 2.0 0.00 0.00 0.00 80 1017.7
20260830150902 85 319 2.0 3.0 0.00 0.00 0.00 81 1017.7
20260830150324 85 175 3.0 3.0 0.00 0.00 0.00 82 1017.7
20260830145826 84 231 2.0 2.0 0.00 0.00 0.00 83 1017.7
20260830145332 84 201 0.0 1.0 0.00 0.00 0.00 83 1017.7
20260830144837 84 210 1.0 4.0 0.00 0.00 0.00 83 1017.7
20260830144324 84 254 4.0 4.0 0.00 0.00 0.00 84 1017.7
20260830143829 83 205 2.0 2.0 0.00 0.00 0.00 86 1017.7
20260830143335 83 240 1.0 3.0 0.00 0.00 0.00 87 1017.7
20260830142839 82 228 3.0 3.0 0.00 0.00 0.00 87 1017.9
20260830142323 82 210 0.0 0.0 0.00 0.00 0.00 89 1017.9
20260830141826 82 215 0.0 0.0 0.00 0.00 0.00 89 1017.9
20260830141331 82 175 0.0 0.0 0.00 0.00 0.00 89 1017.8
20260830140834 82 175 0.0 0.0 0.00 0.00 0.00 89 1017.8
20260830140337 82 218 0.0 0.0 0.00 0.00 0.00 90 1017.8
20260830135839 81 274 0.0 0.0 0.00 0.00 0.00 91 1017.5
20260830135323 81 334 0.0 0.0 0.00 0.00 0.00 91 1017.5
20260830134848 81 173 0.0 0.0 0.00 0.00 0.00 91 1017.5
20260830134356 80 173 0.0 0.0 0.00 0.00 0.00 93 1017.5
20260830133825 80 173 0.0 0.0 0.00 0.00 0.00 94 1017.5
20260830133332 79 173 0.0 0.0 0.00 0.00 0.00 95 1017.4
20260830132856 79 173 0.0 0.0 0.00 0.00 0.00 95 1017.4
20260830132341 78 173 0.0 0.0 0.00 0.00 0.00 96 1017.4
20260830131826 78 173 0.0 0.0 0.00 0.00 0.00 96 1017.4
20260830131332 78 173 0.0 0.0 0.00 0.00 0.00 96 1017.3
20260830130840 77 173 0.0 0.0 0.00 0.00 0.00 96 1017.3
20260830130326 77 173 0.0 0.0 0.00 0.00 0.00 95 1017.3
20260830125832 77 173 0.0 0.0 0.00 0.00 0.00 95 1017.1
20260830125337 77 173 0.0 0.0 0.00 0.00 0.00 95 1017.1
20260830124903 77 173 0.0 0.0 0.00 0.00 0.00 95 1017.1
20260830124327 76 173 0.0 0.0 0.00 0.00 0.00 95 1016.9
20260830123836 76 173 0.0 0.0 0.00 0.00 0.00 95 1016.9
20260830123325 76 173 0.0 0.0 0.00 0.00 0.00 95 1016.9
20260830122849 76 173 0.0 0.0 0.00 0.00 0.00 95 1016.9
20260830122337 76 173 0.0 0.0 0.00 0.00 0.00 95 1016.9
20260830121841 76 173 0.0 0.0 0.00 0.00 0.00 95 1016.9
20260830121327 76 173 0.0 0.0 0.00 0.00 0.00 95 1016.9
20260830120835 76 173 0.0 0.0 0.00 0.00 0.00 95 1016.9
20260830120341 76 173 0.0 0.0 0.00 0.00 0.00 95 1016.9
20260830115845 77 173 0.0 0.0 0.00 0.00 0.00 95 1016.8
20260830115329 77 173 0.0 0.0 0.00 0.00 0.00 94 1016.8
20260830114835 77 173 0.0 0.0 0.00 0.00 0.00 94 1016.8
20260830114402 77 173 0.0 0.0 0.00 0.00 0.00 94 1016.7
20260830113827 77 173 0.0 0.0 0.00 0.00 0.00 94 1016.7
20260830113334 77 173 0.0 0.0 0.00 0.00 0.00 94 1016.7
20260830112822 77 173 0.0 0.0 0.00 0.00 0.00 94 1016.5
20260830112328 77 173 0.0 0.0 0.00 0.00 0.00 94 1016.5
20260830111833 77 173 0.0 0.0 0.00 0.00 0.00 93 1016.5
20260830111321 77 173 0.0 0.0 0.00 0.00 0.00 93 1016.4
20260830110850 77 173 0.0 0.0 0.00 0.00 0.00 93 1016.4
20260830110334 77 173 0.0 0.0 0.00 0.00 0.00 93 1016.4
20260830105841 77 173 0.0 0.0 0.00 0.00 0.00 93 1016.4
20260830105326 77 173 0.0 0.0 0.00 0.00 0.00 93 1016.4
20260830104834 77 173 0.0 0.0 0.00 0.00 0.00 93 1016.4
20260830104358 77 173 0.0 0.0 0.00 0.00 0.00 93 1016.3
20260830103822 78 173 0.0 0.0 0.00 0.00 0.00 92 1016.3
20260830103330 78 173 0.0 0.0 0.00 0.00 0.00 92 1016.3
20260830102837 78 173 0.0 0.0 0.00 0.00 0.00 92 1016.1
20260830102322 78 173 0.0 0.0 0.00 0.00 0.00 92 1016.1
20260830101826 78 173 0.0 0.0 0.00 0.00 0.00 92 1016.1
20260830101352 78 173 0.0 0.0 0.00 0.00 0.00 92 1015.9
20260830100838 78 173 0.0 0.0 0.00 0.00 0.00 92 1015.9
20260830100342 78 173 0.0 0.0 0.00 0.00 0.00 92 1015.9
20260830095829 78 173 0.0 0.0 0.00 0.00 0.00 91 1015.9
20260830095337 78 173 0.0 0.0 0.00 0.00 0.00 91 1015.9
20260830094841 78 173 0.0 0.0 0.00 0.00 0.00 91 1015.9
20260830094326 79 173 0.0 0.0 0.00 0.00 0.00 91 1015.9
20260830093830 79 173 0.0 0.0 0.00 0.00 0.00 91 1015.9
20260830093335 79 173 0.0 0.0 0.00 0.00 0.00 90 1015.9
20260830092841 79 173 0.0 0.0 0.00 0.00 0.00 90 1015.9
20260830092331 79 173 0.0 0.0 0.00 0.00 0.00 90 1015.9
20260830091837 79 173 0.0 1.0 0.00 0.00 0.00 90 1015.9
20260830091401 79 173 1.0 1.0 0.00 0.00 0.00 90 1016.0
20260830090825 79 173 0.0 0.0 0.00 0.00 0.00 90 1016.0
20260830090331 79 173 0.0 0.0 0.00 0.00 0.00 90 1016.0
20260830085837 79 173 0.0 0.0 0.00 0.00 0.00 90 1016.0
20260830085324 79 173 0.0 0.0 0.00 0.00 0.00 90 1016.0
20260830084829 80 173 0.0 0.0 0.00 0.00 0.00 90 1016.0
20260830084338 80 173 0.0 0.0 0.00 0.00 0.00 90 1016.1
20260830083823 80 173 0.0 0.0 0.00 0.00 0.00 89 1016.1
20260830083327 80 173 0.0 0.0 0.00 0.00 0.00 89 1016.1
20260830082837 80 173 0.0 0.0 0.00 0.00 0.00 89 1016.1
20260830082326 80 173 0.0 0.0 0.00 0.00 0.00 89 1016.1
20260830081832 80 173 0.0 0.0 0.00 0.00 0.00 89 1016.1
20260830081359 80 173 0.0 0.0 0.00 0.00 0.00 89 1016.2
20260830080823 80 173 0.0 0.0 0.00 0.00 0.00 89 1016.2
20260830080329 80 173 0.0 0.0 0.00 0.00 0.00 89 1016.2
20260830075834 80 173 0.0 1.0 0.00 0.00 0.00 89 1016.3
20260830075340 80 173 1.0 2.0 0.00 0.00 0.00 89 1016.3
20260830074825 80 173 2.0 2.0 0.00 0.00 0.00 89 1016.3
20260830074334 80 173 0.0 0.0 0.00 0.00 0.00 89 1016.4
20260830073839 80 173 0.0 0.0 0.00 0.00 0.00 88 1016.4
20260830073344 80 173 0.0 0.0 0.00 0.00 0.00 88 1016.4
20260830072833 80 173 0.0 0.0 0.00 0.00 0.00 88 1016.4
20260830072337 80 163 0.0 0.0 0.00 0.00 0.00 88 1016.4
20260830071902 81 177 0.0 0.0 0.00 0.00 0.00 88 1016.4
20260830071325 81 187 0.0 0.0 0.00 0.00 0.00 88 1016.4
20260830070830 81 177 0.0 0.0 0.00 0.00 0.00 88 1016.4
20260830070335 81 177 0.0 0.0 0.00 0.00 0.00 88 1016.4
20260830065823 81 177 0.0 0.0 0.00 0.00 0.00 87 1016.4
20260830065327 81 177 0.0 0.0 0.00 0.00 0.00 87 1016.4
20260830064833 81 177 0.0 0.0 0.00 0.00 0.00 87 1016.4
20260830064338 81 177 0.0 0.0 0.00 0.00 0.00 87 1016.4
20260830063844 81 177 0.0 2.0 0.00 0.00 0.00 87 1016.4
20260830063349 81 182 2.0 2.0 0.00 0.00 0.00 87 1016.4
20260830062833 81 172 2.0 2.0 0.00 0.00 0.00 86 1016.4
20260830062337 81 172 1.0 1.0 0.00 0.00 0.00 86 1016.4
20260830061822 81 169 1.0 1.0 0.00 0.00 0.00 86 1016.4
20260830061351 81 169 0.0 0.0 0.00 0.00 0.00 86 1016.3
20260830060841 82 169 0.0 2.0 0.00 0.00 0.00 86 1016.3
20260830060346 82 169 2.0 2.0 0.00 0.00 0.00 85 1016.3
20260830055832 82 169 0.0 0.0 0.00 0.00 0.00 85 1016.4
20260830055338 82 169 0.0 0.0 0.00 0.00 0.00 85 1016.4
20260830054843 82 169 0.0 0.0 0.00 0.00 0.00 85 1016.4
20260830054348 82 169 0.0 4.0 0.00 0.00 0.00 84 1016.4
20260830053852 82 178 4.0 4.0 0.00 0.00 0.00 84 1016.4
20260830053339 82 133 3.0 3.0 0.00 0.00 0.00 84 1016.4
20260830052828 82 186 3.0 3.0 0.00 0.00 0.00 84 1016.4
20260830052333 82 178 1.0 1.0 0.00 0.00 0.00 83 1016.4
20260830051839 82 206 1.0 2.0 0.00 0.00 0.00 83 1016.4
20260830051323 83 177 2.0 2.0 0.00 0.00 0.00 83 1016.4
20260830050830 83 230 2.0 3.0 0.00 0.00 0.00 83 1016.4
20260830050322 83 213 3.0 4.0 0.00 0.00 0.00 82 1016.4
20260830045826 83 214 4.0 4.0 0.00 0.00 0.00 82 1016.4
20260830045332 83 197 4.0 4.0 0.00 0.00 0.00 82 1016.4
20260830044858 83 213 2.0 6.0 0.00 0.00 0.00 81 1016.4
20260830044342 84 215 6.0 6.0 0.00 0.00 0.00 81 1016.4
20260830043830 84 194 6.0 6.0 0.00 0.00 0.00 80 1016.4
20260830043336 84 158 3.0 3.0 0.00 0.00 0.00 80 1016.4
20260830042900 84 169 2.0 2.0 0.00 0.00 0.00 79 1016.4
20260830042325 84 173 1.0 4.0 0.00 0.00 0.00 79 1016.4
20260830041831 84 168 4.0 4.0 0.00 0.00 0.00 79 1016.4
20260830041337 84 155 3.0 3.0 0.00 0.00 0.00 78 1016.4
20260830040841 84 141 3.0 4.0 0.00 0.00 0.00 78 1016.4
20260830040327 85 156 4.0 6.0 0.00 0.00 0.00 78 1016.4
20260830035838 85 171 6.0 6.0 0.00 0.00 0.00 78 1016.4
20260830035340 85 182 5.0 5.0 0.00 0.00 0.00 77 1016.4
20260830034835 85 170 1.0 4.0 0.00 0.00 0.00 77 1016.4
20260830034320 85 168 4.0 4.0 0.00 0.00 0.00 77 1016.3
20260830033848 85 192 1.0 1.0 0.00 0.00 0.00 76 1016.3
20260830033351 85 160 1.0 2.0 0.00 0.00 0.00 76 1016.3
20260830032835 85 167 2.0 5.0 0.00 0.00 0.00 76 1016.3